• în Republica Moldova
  • Lista ţărilor
  • Pe 7 zile
  • Temperatura apei
  • Hartă satelitară
  • Meteo pe hartă
  • Widget-uri
  • user-avatar
    Intrare

    Meteo pe oră la Sydney

    Astăzi, 26 Martie, Marţi

    Timp Temperatura Precipitaţii Vânt Presiune Umiditate
    00:00 +23°C° 0 mm 5 m/s 758 mmHg 63%
    01:00 +22°C° 0 mm 5 m/s 759 mmHg 61%
    02:00 +21°C° 0 mm 5 m/s 759 mmHg 61%
    03:00 +20°C° 0 mm 5 m/s 759 mmHg 62%
    04:00 +20°C° 0 mm 4 m/s 759 mmHg 66%
    05:00 +20°C° 0 mm 4 m/s 759 mmHg 67%
    06:00 +19°C° 0 mm 4 m/s 760 mmHg 68%
    07:00 +19°C° 0 mm 4 m/s 760 mmHg 69%
    08:00 +20°C° 0 mm 5 m/s 760 mmHg 58%
    09:00 +21°C° 0 mm 5 m/s 761 mmHg 47%
    10:00 +23°C° 0 mm 5 m/s 761 mmHg 34%
    11:00 +25°C° 0 mm 4 m/s 761 mmHg 31%
    12:00 +26°C° 0 mm 4 m/s 761 mmHg 28%
    13:00 +27°C° 0 mm 4 m/s 761 mmHg 25%
    14:00 +27°C° 0 mm 4 m/s 761 mmHg 25%
    15:00 +27°C° 0 mm 4 m/s 761 mmHg 25%
    16:00 +26°C° 0 mm 4 m/s 761 mmHg 27%
    17:00 +25°C° 0 mm 4 m/s 762 mmHg 36%
    18:00 +23°C° 0 mm 5 m/s 763 mmHg 45%
    19:00 +21°C° 0 mm 5 m/s 763 mmHg 54%
    20:00 +21°C° 0 mm 5 m/s 764 mmHg 55%
    21:00 +21°C° 0 mm 4 m/s 764 mmHg 55%
    22:00 +21°C° 0 mm 4 m/s 765 mmHg 56%
    23:00 +20°C° 0 mm 4 m/s 765 mmHg 56%

    Mâine, 27 Martie, Miercuri

    Timp Temperatura Precipitaţii Vânt Presiune Umiditate
    00:00 +20°C° 0 mm 3 m/s 765 mmHg 57%
    01:00 +19°C° 0 mm 3 m/s 766 mmHg 57%
    02:00 +19°C° 0 mm 3 m/s 766 mmHg 58%
    03:00 +19°C° 0 mm 3 m/s 766 mmHg 58%
    04:00 +19°C° 0 mm 3 m/s 766 mmHg 59%
    05:00 +19°C° 0 mm 3 m/s 766 mmHg 61%
    06:00 +19°C° 0 mm 3 m/s 767 mmHg 63%
    07:00 +19°C° 0 mm 3 m/s 767 mmHg 66%
    08:00 +20°C° 0.1 mm 3 m/s 767 mmHg 65%
    09:00 +21°C° 0.1 mm 3 m/s 767 mmHg 64%
    10:00 +21°C° 0.1 mm 3 m/s 767 mmHg 63%
    11:00 +21°C° 0.1 mm 3 m/s 767 mmHg 63%
    12:00 +21°C° 0.1 mm 3 m/s 767 mmHg 63%
    13:00 +21°C° 0.1 mm 3 m/s 766 mmHg 63%
    14:00 +22°C° 0 mm 3 m/s 766 mmHg 60%
    15:00 +22°C° 0 mm 3 m/s 766 mmHg 57%
    16:00 +23°C° 0 mm 4 m/s 766 mmHg 54%
    17:00 +22°C° 0 mm 3 m/s 766 mmHg 55%
    18:00 +22°C° 0 mm 3 m/s 766 mmHg 57%
    19:00 +21°C° 0 mm 2 m/s 766 mmHg 58%
    20:00 +21°C° 0 mm 2 m/s 766 mmHg 59%
    21:00 +22°C° 0 mm 1 m/s 767 mmHg 59%
    22:00 +22°C° 0 mm 1 m/s 767 mmHg 60%
    23:00 +21°C° 0 mm 1 m/s 766 mmHg 63%

    Poimâine, 28 Martie, Joi

    Timp Temperatura Precipitaţii Vânt Presiune Umiditate
    00:00 +20°C° 0 mm 1 m/s 766 mmHg 66%
    01:00 +20°C° 0 mm 1 m/s 766 mmHg 70%
    02:00 +19°C° 0 mm 1 m/s 765 mmHg 72%
    03:00 +19°C° 0 mm 1 m/s 765 mmHg 74%
    04:00 +17°C° 0 mm 2 m/s 765 mmHg 76%
    05:00 +17°C° 0 mm 2 m/s 765 mmHg 75%
    06:00 +17°C° 0 mm 2 m/s 765 mmHg 75%
    07:00 +18°C° 0 mm 2 m/s 765 mmHg 74%
    08:00 +20°C° 0 mm 2 m/s 765 mmHg 67%
    09:00 +23°C° 0 mm 2 m/s 765 mmHg 60%
    10:00 +26°C° 0 mm 1 m/s 765 mmHg 52%
    11:00 +26°C° 0 mm 2 m/s 764 mmHg 51%
    12:00 +27°C° 0 mm 2 m/s 763 mmHg 49%
    13:00 +28°C° 0 mm 2 m/s 763 mmHg 47%
    14:00 +27°C° 0 mm 3 m/s 762 mmHg 49%
    15:00 +27°C° 0 mm 3 m/s 762 mmHg 51%
    16:00 +27°C° 0 mm 4 m/s 761 mmHg 53%
    17:00 +26°C° 0 mm 4 m/s 761 mmHg 58%
    18:00 +25°C° 0 mm 4 m/s 761 mmHg 62%
    19:00 +22°C° 0 mm 4 m/s 762 mmHg 66%
    20:00 +22°C° 0 mm 4 m/s 762 mmHg 68%
    21:00 +22°C° 0 mm 4 m/s 762 mmHg 69%
    22:00 +21°C° 0 mm 3 m/s 762 mmHg 71%
    23:00 +21°C° 0 mm 3 m/s 762 mmHg 74%

    29 Martie, Vineri

    Timp Temperatura Precipitaţii Vânt Presiune Umiditate
    00:00 +20°C° 0 mm 3 m/s 761 mmHg 76%
    01:00 +20°C° 0 mm 3 m/s 761 mmHg 79%
    02:00 +19°C° 0 mm 2 m/s 760 mmHg 81%
    03:00 +19°C° 0 mm 2 m/s 760 mmHg 83%
    04:00 +18°C° 0 mm 2 m/s 760 mmHg 85%
    05:00 +19°C° 0 mm 2 m/s 760 mmHg 85%
    06:00 +19°C° 0 mm 2 m/s 760 mmHg 84%
    07:00 +19°C° 0 mm 2 m/s 760 mmHg 84%
    08:00 +21°C° 0 mm 2 m/s 760 mmHg 75%
    09:00 +24°C° 0 mm 3 m/s 759 mmHg 67%
    10:00 +26°C° 0 mm 3 m/s 759 mmHg 59%
    11:00 +27°C° 0 mm 4 m/s 758 mmHg 53%
    12:00 +29°C° 0 mm 4 m/s 757 mmHg 47%
    13:00 +30°C° 0 mm 4 m/s 756 mmHg 41%
    14:00 +30°C° 0 mm 5 m/s 756 mmHg 43%
    15:00 +30°C° 0 mm 6 m/s 755 mmHg 44%
    16:00 +30°C° 0 mm 6 m/s 754 mmHg 46%
    17:00 +29°C° 0.4 mm 7 m/s 754 mmHg 55%
    18:00 +28°C° 0.4 mm 7 m/s 755 mmHg 64%
    19:00 +26°C° 0.4 mm 7 m/s 755 mmHg 72%
    20:00 +24°C° 3.2 mm 6 m/s 755 mmHg 76%
    21:00 +23°C° 3.2 mm 5 m/s 755 mmHg 80%
    22:00 +22°C° 3.2 mm 4 m/s 755 mmHg 84%
    23:00 +22°C° 2 mm 4 m/s 755 mmHg 85%

    30 Martie, Sâmbătă

    Timp Temperatura Precipitaţii Vânt Presiune Umiditate
    00:00 +21°C° 2 mm 5 m/s 754 mmHg 86%
    01:00 +20°C° 2 mm 6 m/s 754 mmHg 88%
    02:00 +20°C° 1.8 mm 5 m/s 753 mmHg 88%
    03:00 +20°C° 1.8 mm 4 m/s 753 mmHg 88%
    04:00 +20°C° 1.8 mm 3 m/s 752 mmHg 88%
    05:00 +20°C° 2.5 mm 3 m/s 752 mmHg 87%
    06:00 +19°C° 2.5 mm 3 m/s 753 mmHg 86%
    07:00 +19°C° 2.5 mm 3 m/s 753 mmHg 85%
    08:00 +20°C° 0 mm 4 m/s 753 mmHg 78%
    09:00 +22°C° 0 mm 4 m/s 753 mmHg 71%
    10:00 +23°C° 0 mm 5 m/s 754 mmHg 65%
    11:00 +23°C° 0.1 mm 5 m/s 754 mmHg 62%
    12:00 +25°C° 0.1 mm 5 m/s 754 mmHg 60%
    13:00 +25°C° 0.1 mm 5 m/s 754 mmHg 57%
    14:00 +23°C° 0.3 mm 6 m/s 754 mmHg 54%
    15:00 +22°C° 0.3 mm 6 m/s 754 mmHg 50%
    16:00 +22°C° 0.3 mm 7 m/s 754 mmHg 46%
    17:00 +21°C° 0 mm 7 m/s 754 mmHg 43%
    18:00 +20°C° 0 mm 6 m/s 755 mmHg 39%
    19:00 +19°C° 0 mm 6 m/s 756 mmHg 36%
    20:00 +17°C° 0 mm 6 m/s 757 mmHg 40%
    21:00 +16°C° 0 mm 6 m/s 758 mmHg 43%
    22:00 +16°C° 0 mm 6 m/s 758 mmHg 47%
    23:00 +15°C° 0 mm 6 m/s 759 mmHg 48%

    31 Martie, Duminică

    Timp Temperatura Precipitaţii Vânt Presiune Umiditate
    00:00 +15°C° 0 mm 6 m/s 759 mmHg 49%
    01:00 +14°C° 0 mm 7 m/s 759 mmHg 50%
    02:00 +14°C° 0 mm 6 m/s 759 mmHg 51%
    03:00 +13°C° 0 mm 6 m/s 759 mmHg 52%
    04:00 +13°C° 0 mm 6 m/s 759 mmHg 53%
    05:00 +12°C° 0 mm 5 m/s 760 mmHg 54%
    06:00 +12°C° 0 mm 5 m/s 760 mmHg 54%
    07:00 +12°C° 0 mm 5 m/s 761 mmHg 54%
    08:00 +14°C° 0 mm 4 m/s 762 mmHg 49%
    09:00 +15°C° 0 mm 4 m/s 762 mmHg 44%
    10:00 +18°C° 0 mm 4 m/s 762 mmHg 38%
    11:00 +19°C° 0 mm 3 m/s 762 mmHg 35%
    12:00 +21°C° 0 mm 3 m/s 762 mmHg 31%
    13:00 +23°C° 0 mm 2 m/s 762 mmHg 28%
    14:00 +23°C° 0 mm 2 m/s 761 mmHg 29%
    15:00 +23°C° 0 mm 2 m/s 761 mmHg 31%
    16:00 +24°C° 0 mm 2 m/s 761 mmHg 32%
    17:00 +21°C° 0 mm 2 m/s 762 mmHg 38%
    18:00 +20°C° 0 mm 2 m/s 763 mmHg 43%
    19:00 +19°C° 0 mm 2 m/s 763 mmHg 48%
    20:00 +19°C° 0 mm 2 m/s 764 mmHg 51%
    21:00 +18°C° 0 mm 2 m/s 765 mmHg 53%
    22:00 +18°C° 0 mm 2 m/s 765 mmHg 56%
    23:00 +17°C° 0 mm 3 m/s 765 mmHg 58%
    Arată mai mult